Epoch 2011 Aug. 27.0 TT = JDT 2455800.5 T 2011 Sept. 7.12120 TT MPCW q 0.0531692 (2000.0) P Q n 0.24718797 Peri. 48.70248 +0.66145473 -0.74998496 a 2.5144972 Node 359.88377 +0.60578508 +0.53462598 e 0.9788550 Incl. 12.66358 +0.44215618 +0.38948378 P 3.99 From 244 observations 1999 Sept. 4-2015 May 22.
m1 = 19.0 + 5 logΔ + 10.5 log r(t - 0.17)